Location: Seattle
(47.6064°N, 122.3308°W)
Time: 07:32:59
(UTC-08:00)

Envisat - Pass Details

Date: 05 November 2020
Orbit: 764 x 766 km, 98.1° (Epoch: 30 November)

Event Time Altitude Azimuth Distance (km) Brightness Sun altitude
Rises 05:05:23 0° 25° (NNE) 3,243 6.6 -19.6°
Reaches altitude 10° 05:08:13 10° 41° (NE) 2,311 6.0 -19.2°
Maximum altitude 05:12:07 22° 91° (E) 1,634 5.6 -18.5°
Drops below altitude 10° 05:16:00 10° 142° (SE) 2,296 6.1 -17.9°
Sets 05:18:47 0° 157° (SSE) 3,217 6.6 -17.4°
